Wind_Speed
21 18 11 2 1 2 4 5 2 4 3 4 4 4 5 4 1 2 9 13 24 23 19 18 16 15 14 14 15 16 17 17 16 16 16 15 14 13 13 12 11 12 13 12 12 10 11 12 12
22 18 5 1 2 4 3 2 9 4 3 6 7 4 5 3 4 9 11 12 24 22 20 19 17 15 14 14 14 15 15 15 15 14 14 13 12 11 12 11 10 11 11 11 11 10 10 11 12
21 11 2 4 1 2 3 2 10 5 6 4 3 4 3 2 7 12 9 22 24 22 19 19 18 16 15 14 14 14 14 15 13 13 12 11 10 10 11 10 9 9 9 10 9 9 9 10 11
11 3 3 2 3 2 5 6 6 7 9 9 7 5 5 6 13 9 25 27 24 21 20 19 19 17 15 14 14 14 14 13 14 12 12 11 10 8 6 6 6 8 8 8 8 9 9 9 9
3 2 3 4 4 4 5 9 9 7 5 8 6 4 3 3 10 25 28 26 26 24 21 20 18 17 15 14 14 14 14 13 13 12 11 10 10 8 7 6 5 6 7 7 7 7 9 9 8
2 1 5 4 6 6 3 7 7 8 9 10 7 5 2 15 26 24 26 25 24 24 21 19 18 16 15 14 14 13 13 13 12 12 11 10 9 8 7 6 6 6 7 7 7 7 7 8 9
3 3 2 2 4 3 4 4 6 9 9 4 7 5 3 9 21 26 22 23 24 22 20 19 18 17 16 15 14 14 14 13 13 13 12 11 9 8 9 8 6 7 7 8 8 8 8 8 9
3 3 3 2 3 5 3 2 3 6 2 6 13 5 5 12 22 23 20 21 22 21 20 20 19 18 17 16 15 14 14 13 13 13 12 11 11 9 8 7 6 6 6 6 6 6 7 7 8
3 4 2 4 4 3 7 7 6 2 12 5 5 5 12 21 24 22 20 17 21 21 20 20 19 18 17 16 15 15 14 13 12 12 12 12 12 10 8 7 7 6 5 5 6 6 7 6 8
3 3 3 3 7 7 7 6 10 6 8 2 6 11 27 25 24 22 17 17 21 23 23 22 20 19 17 16 15 14 14 14 13 14 14 13 12 12 9 8 7 7 6 6 6 5 5 6 7
4 6 4 8 8 7 4 4 1 11 4 8 17 15 20 22 21 20 19 26 33 26 23 23 21 20 19 17 15 14 14 14 14 14 14 13 12 12 11 11 11 10 9 9 8 9 9 8 9
3 6 6 6 12 9 5 8 4 9 7 13 18 21 18 15 16 19 20 21 22 24 24 23 21 20 19 17 16 14 15 16 16 16 14 15 13 12 10 11 10 12 12 12 11 11 10 10 10
5 5 9 10 8 8 7 5 4 7 10 15 15 17 18 15 18 20 26 27 25 25 25 24 22 22 19 19 16 16 17 16 13 16 15 15 14 13 9 10 14 12 13 13 12 11 10 9 9
4 6 4 12 15 8 7 3 2 2 14 16 16 14 15 17 21 19 19 24 28 27 26 24 24 22 20 18 16 15 18 16 17 18 18 18 16 13 11 8 12 12 13 13 11 12 11 9 10
5 5 7 6 6 5 5 6 8 5 16 18 18 15 14 15 22 23 29 29 33 31 28 26 25 22 20 17 16 12 13 15 12 11 14 17 16 15 11 12 12 13 13 14 13 13 13 15 16
6 4 4 3 6 3 6 10 8 9 14 16 17 15 17 16 23 27 31 34 31 30 30 27 26 24 17 13 10 6 6 9 10 16 18 20 16 14 13 13 11 10 11 12 12 13 14 16 17
5 3 3 1 9 6 5 7 5 7 12 13 15 17 16 14 14 23 30 30 32 30 31 30 27 23 18 10 8 1 4 2 2 7 9 14 13 11 10 10 9 7 10 11 11 13 15 11 8
5 5 3 6 9 11 12 11 7 9 13 14 13 17 15 14 18 25 29 31 31 31 31 30 26 22 18 11 8 3 3 5 4 5 7 12 15 12 11 11 10 8 9 11 10 11 10 11 7
3 4 8 6 6 6 11 9 10 17 12 12 14 15 14 16 16 21 27 30 29 30 30 28 26 24 19 14 9 4 4 6 5 5 6 6 8 13 15 13 11 9 9 8 7 7 6 9 10
6 7 11 8 6 7 13 8 6 13 22 24 21 16 13 7 8 9 19 25 32 33 31 28 29 26 19 16 10 6 6 6 5 5 4 5 6 7 10 11 11 11 7 5 6 6 5 4 4
5 7 9 10 5 2 2 7 2 5 3 13 9 7 6 11 12 9 12 19 25 28 31 30 26 21 18 14 13 10 7 7 7 6 4 4 5 5 5 4 3 5 4 5 5 6 7 5 4
4 11 16 9 3 5 4 5 6 3 1 7 9 8 10 8 8 7 11 15 22 30 30 29 19 19 18 16 14 13 10 11 8 6 5 6 7 6 6 5 3 4 4 6 7 7 9 9 9
11 7 15 10 3 5 3 3 8 3 5 10 10 9 8 7 9 10 13 19 20 25 33 35 23 20 20 17 13 11 12 10 9 8 8 8 9 7 6 4 3 2 3 5 5 4 5 5 7
3 4 8 6 5 1 7 5 6 4 8 5 7 8 9 11 8 7 9 15 17 22 30 14 8 15 18 17 14 11 12 8 10 10 13 11 12 11 7 3 1 1 1 1 3 3 2 2 3
5 6 2 2 2 6 4 3 9 7 8 9 12 9 10 10 8 7 9 15 19 21 20 12 12 15 13 17 12 10 9 6 10 11 12 12 14 12 8 5 1 3 3 0 1 0 0 1 2
2 7 6 5 3 5 4 4 5 3 8 9 5 6 13 14 15 14 17 21 18 23 23 16 16 18 14 13 10 8 8 6 7 8 8 5 12 11 9 7 7 5 5 3 1 2 1 1 1
2 2 5 7 3 2 3 6 6 6 11 9 13 14 11 13 14 13 19 21 18 24 25 20 19 15 14 12 11 9 6 4 8 13 10 12 12 11 10 7 5 5 3 3 2 4 5 3 5
6 6 2 3 4 4 5 4 5 4 4 4 8 9 7 4 8 17 11 30 24 23 25 21 21 19 17 14 11 9 7 5 10 14 15 14 14 13 12 8 4 4 3 2 2 4 4 5 6
2 2 6 6 4 6 1 6 6 6 4 4 5 7 8 9 5 8 0 8 18 25 23 23 21 20 19 17 13 12 13 17 16 13 13 16 16 14 12 9 6 6 4 3 2 3 4 6 7
2 5 6 5 5 1 4 6 4 7 8 4 4 9 3 10 9 9 4 15 15 15 22 25 24 23 22 19 15 13 18 17 16 15 13 14 11 10 11 9 10 10 9 6 5 4 5 7 9
Wind_Direction
177 171 171 209 34 30 7 1 20 70 10 339 62 73 93 22 99 187 148 152 158 155 160 162 160 152 147 143 141 138 134 128 123 121 121 121 125 128 128 130 133 130 128 128 132 130 128 120 123
167 156 163 334 45 65 332 291 86 54 123 107 79 97 58 41 68 120 127 160 161 155 158 165 164 158 150 148 149 147 140 134 130 127 127 128 125 122 129 135 130 134 135 133 131 129 128 126 133
160 161 163 141 94 135 141 302 123 121 139 119 104 75 62 109 95 140 159 161 161 161 163 165 167 166 158 157 156 154 149 141 140 136 135 134 134 125 122 119 133 130 136 138 136 138 134 133 135
163 235 257 88 341 359 146 173 157 137 87 78 87 57 70 287 147 162 153 160 163 164 166 168 169 169 166 163 164 165 160 151 149 149 145 145 143 147 144 143 140 130 138 143 141 146 140 139 143
206 246 27 48 347 69 116 138 140 134 79 106 109 97 70 73 139 147 157 164 165 166 170 170 171 172 172 171 173 173 166 161 157 160 157 157 156 158 159 155 161 159 142 145 152 147 143 144 148
269 102 41 20 1 98 121 146 131 99 110 104 96 95 5 150 139 153 160 168 169 168 170 170 174 174 174 176 177 175 172 169 166 167 168 170 171 166 158 167 162 166 166 164 159 157 150 150 155
243 77 53 60 71 95 154 125 124 131 133 120 132 101 119 163 151 156 167 173 172 174 173 177 180 179 178 178 180 179 178 177 175 176 176 179 182 176 167 174 169 174 175 176 172 169 175 170 165
129 82 59 49 70 45 56 110 133 132 145 112 134 156 177 181 153 156 168 174 176 180 183 185 187 187 184 185 185 187 186 185 185 183 182 185 185 183 180 180 185 188 189 182 187 181 187 184 181
143 48 344 89 72 236 179 133 169 114 142 191 194 127 151 151 147 151 158 169 179 186 190 193 192 195 192 191 192 195 194 195 195 191 189 188 190 187 189 194 197 196 194 195 194 204 197 195 198
119 101 169 204 169 224 170 130 162 131 176 38 85 90 137 152 156 158 165 176 186 193 194 198 198 200 201 199 199 204 204 204 204 202 196 202 196 196 188 194 202 204 207 204 195 205 207 213 224
180 182 204 171 177 214 170 108 208 136 202 183 154 146 152 162 170 170 182 184 188 195 196 200 201 204 206 206 205 211 215 217 216 215 210 206 202 198 203 208 222 215 204 207 204 206 209 215 222
189 209 188 227 189 184 198 139 187 186 191 162 161 154 156 170 181 187 186 191 196 198 200 203 203 204 210 212 216 220 224 221 220 217 216 215 207 208 209 203 200 199 208 211 210 211 218 227 233
206 201 192 201 207 209 115 191 216 236 147 147 159 154 166 178 192 201 197 193 197 202 205 207 207 207 211 215 222 232 233 237 250 245 231 226 218 201 191 202 200 207 213 218 217 221 221 235 248
272 308 238 189 188 194 161 32 34 292 151 150 160 181 178 185 193 195 200 193 200 208 210 209 210 211 215 220 231 246 241 256 263 245 232 233 228 213 196 202 205 210 221 223 232 235 247 247 270
333 27 359 41 132 165 122 324 228 161 153 158 168 187 197 201 193 200 196 200 201 211 212 212 213 211 215 226 229 241 251 265 250 243 232 222 229 219 224 206 214 226 230 236 238 247 252 259 278
24 39 35 285 142 171 108 244 239 163 161 170 174 191 205 209 203 203 209 205 204 208 212 213 214 210 218 227 224 243 305 296 252 239 240 228 244 228 202 211 218 229 236 241 242 248 259 271 285
12 203 232 274 214 136 172 252 202 165 182 176 184 200 207 212 219 209 211 208 201 209 209 212 213 211 212 200 195 273 346 37 188 214 213 201 197 203 199 206 210 246 244 242 256 252 279 259 267
250 307 243 178 215 188 186 252 149 174 185 187 193 208 203 206 220 211 205 204 201 205 208 208 207 207 203 189 156 130 89 119 130 154 176 192 208 205 218 221 233 247 259 260 262 272 255 257 265
243 227 269 285 172 148 198 224 186 189 197 200 201 210 207 199 210 218 201 200 199 199 203 202 197 200 200 186 166 166 152 157 164 171 174 200 212 217 224 227 240 253 264 269 257 276 266 279 255
232 273 270 287 197 188 189 207 229 190 207 204 199 206 205 165 176 190 198 185 191 198 203 197 197 202 204 194 185 168 166 180 174 184 201 209 208 208 222 226 232 234 249 254 256 251 256 249 227
216 212 261 224 327 308 31 323 347 205 222 225 222 182 209 189 197 180 189 186 181 190 200 198 199 211 205 197 184 169 170 174 189 198 205 207 192 191 191 215 210 237 233 231 235 249 235 252 263
229 218 241 265 26 270 33 280 307 304 263 235 211 182 202 194 200 187 176 189 180 193 201 194 187 230 208 201 196 184 183 173 195 205 180 157 171 179 195 181 200 231 239 245 242 243 246 249 254
237 188 215 235 128 13 322 81 273 344 275 246 227 214 200 182 197 188 192 193 183 189 201 194 193 206 203 190 191 195 184 176 188 188 175 162 156 148 152 167 163 229 247 248 240 234 229 230 241
291 67 39 40 86 79 248 134 287 206 229 253 242 208 188 190 195 196 161 169 174 190 214 155 204 175 196 188 188 187 175 183 184 178 173 174 169 162 155 163 125 44 140 151 191 207 210 190 213
83 65 3 9 12 213 124 72 237 278 277 232 237 219 193 189 181 152 144 154 159 181 206 189 145 230 197 184 190 187 195 201 204 197 194 198 177 159 153 150 126 145 121 280 48 165 231 226 203
130 145 153 211 216 258 201 226 263 320 306 265 279 52 80 86 70 61 31 348 161 178 195 191 192 200 189 176 168 173 190 215 196 163 143 156 152 152 151 131 87 122 112 108 146 201 209 152 235
215 172 185 108 33 42 267 295 340 355 22 63 88 90 94 105 102 96 29 337 276 184 188 191 183 175 162 175 163 161 170 166 185 146 136 146 148 144 153 125 104 93 94 73 100 85 79 44 29
163 161 80 8 131 241 295 279 234 334 7 352 93 105 100 97 100 88 144 263 295 239 189 174 182 175 165 173 165 163 145 154 144 146 149 143 140 145 143 131 140 129 134 111 88 75 62 56 52
16 226 56 113 134 163 203 271 180 235 253 222 180 157 141 93 45 104 188 256 306 275 171 170 178 174 167 171 176 169 138 130 141 146 145 142 143 144 138 141 128 131 137 111 66 71 69 71 70
169 199 140 132 248 108 147 264 110 238 264 215 200 220 152 141 155 155 131 317 274 252 168 174 182 178 172 168 168 166 149 146 144 141 148 143 142 142 144 145 123 115 107 85 80 92 107 85 82
Height
783 786 789 791 805 805 806 794 774 781 781 772 769 777 786 786 791 810 787 788 790 794 798 801 804 805 807 808 809 811 813 815 817 818 820 822 823 824 824 825 825 825 825 826 827 829 829 830 831
783 788 791 790 810 820 812 786 789 781 776 772 772 777 783 793 782 787 790 792 794 796 798 801 804 805 807 809 811 812 814 816 817 819 820 822 824 825 826 825 826 826 827 828 829 830 831 831 832
787 789 791 796 808 819 812 787 783 777 770 770 777 773 781 791 786 788 789 793 796 798 800 802 804 805 806 809 812 814 815 816 818 819 821 823 825 825 826 827 826 827 828 829 830 831 833 834 834
788 790 789 803 804 788 789 784 777 778 774 771 775 786 782 784 786 787 790 793 797 800 801 803 804 805 807 810 812 814 816 817 818 820 821 823 824 826 826 827 828 828 829 830 831 832 833 835 836
787 787 800 801 798 785 779 775 774 780 780 778 776 793 792 787 786 788 792 795 796 799 801 802 804 805 808 810 812 815 816 817 818 820 821 823 824 826 827 827 828 829 829 830 832 833 834 835 837
790 790 809 817 803 784 779 773 774 779 779 781 785 789 795 788 787 793 795 797 799 801 802 804 805 806 808 810 812 815 817 818 819 820 821 822 823 824 825 827 828 829 830 830 831 833 833 835 836
788 793 803 800 798 791 783 773 781 783 784 784 777 796 794 792 790 793 797 799 801 803 804 806 807 807 808 810 812 814 816 818 819 820 821 822 822 823 825 827 828 829 829 829 830 831 833 834 836
779 787 795 794 801 802 780 776 776 779 784 776 776 795 803 792 793 795 799 802 803 805 805 806 807 808 808 809 812 813 815 817 818 819 820 821 822 823 824 826 828 828 829 830 830 831 832 833 835
770 800 806 795 793 793 769 778 773 769 777 777 777 778 782 792 794 797 801 804 804 804 805 807 807 809 809 809 810 811 813 815 817 819 820 820 821 822 823 825 826 828 829 830 830 831 831 832 833
781 807 793 776 776 775 762 767 770 776 781 783 781 780 785 791 794 795 799 801 803 802 803 806 807 809 810 810 811 811 812 813 815 817 818 819 821 821 822 823 825 827 829 829 830 830 830 832 834
778 794 775 770 765 760 766 771 766 775 787 775 782 784 785 790 793 794 797 796 795 799 802 804 805 807 809 809 810 810 811 812 813 815 817 818 819 820 822 823 823 826 827 828 828 829 829 830 830
781 772 770 765 756 760 767 767 774 768 767 765 769 774 783 789 793 794 795 796 797 799 800 803 804 806 807 808 808 809 810 810 810 812 814 816 817 818 819 820 822 825 826 826 826 827 828 828 829
772 764 762 758 759 756 759 767 773 771 761 765 772 778 782 786 789 791 790 792 794 795 797 800 803 804 806 807 809 808 808 808 810 811 812 813 814 816 817 818 821 822 824 825 825 826 826 827 828
756 755 756 753 758 756 768 771 769 763 762 770 775 778 778 780 782 786 790 790 790 791 795 798 799 802 805 806 807 806 806 806 806 806 808 809 812 813 815 816 819 820 822 823 824 825 825 825 826
753 771 763 759 762 766 762 779 774 763 763 769 772 776 778 777 778 779 780 784 784 787 791 796 798 802 805 806 806 806 805 804 803 803 802 806 808 811 813 815 817 819 820 821 821 821 822 822 822
773 777 794 768 763 766 767 797 765 764 764 769 770 772 772 772 771 772 775 777 782 785 789 793 796 799 801 804 805 805 804 802 800 798 801 803 806 809 811 813 815 816 816 817 818 819 820 819 818
790 806 795 782 762 768 776 787 763 766 764 769 768 765 767 770 772 770 771 772 776 780 785 790 793 796 799 801 803 803 802 800 799 799 800 802 805 808 810 812 813 813 813 814 814 815 816 815 816
805 799 789 790 767 767 777 780 770 765 764 766 767 763 763 766 766 765 768 769 771 777 782 788 794 798 799 797 801 801 801 801 801 800 801 802 804 806 808 808 809 810 811 811 811 811 811 812 813
784 792 793 768 757 770 777 772 767 759 765 766 766 762 761 760 759 765 765 767 770 776 781 786 793 795 795 797 800 801 800 800 801 801 801 802 802 804 806 807 808 808 808 808 807 807 807 809 809
785 792 789 769 755 768 769 766 760 760 754 749 751 756 757 759 760 762 764 766 769 774 779 782 786 790 791 794 796 797 799 800 800 801 801 801 801 803 805 805 805 806 805 805 805 804 806 807 807
785 790 784 780 759 752 758 772 765 760 754 751 751 749 755 753 759 758 762 766 770 775 777 778 785 788 792 795 794 795 797 798 799 800 801 801 801 802 803 804 804 804 804 803 803 803 803 803 804
796 766 761 768 776 803 764 815 779 762 761 754 750 749 751 753 757 756 759 765 770 772 774 774 776 785 788 792 794 793 794 796 797 799 801 801 801 802 802 803 804 804 803 802 802 801 801 801 802
772 755 760 764 782 789 786 808 786 768 765 758 747 746 748 750 753 753 756 761 767 770 763 758 765 770 784 788 789 790 792 795 797 797 799 801 802 803 803 803 803 803 802 801 801 800 800 799 800
743 758 779 790 805 826 794 801 797 780 763 747 741 739 743 746 749 752 757 764 768 767 755 755 755 765 784 786 786 788 789 791 795 797 798 800 801 803 802 803 802 802 802 802 801 801 800 799 800
760 788 825 825 834 832 797 806 790 758 750 742 737 737 737 742 748 753 756 758 765 767 765 764 760 773 783 787 786 786 788 789 792 794 796 799 800 802 803 803 803 802 802 802 801 800 800 799 798
762 780 820 828 836 819 792 800 776 751 745 737 733 736 741 751 758 770 772 779 765 765 768 769 773 777 781 786 785 786 789 789 790 792 795 799 800 801 802 803 803 802 802 803 802 801 800 799 798
762 781 773 813 821 820 808 784 758 748 753 745 747 747 751 750 751 759 773 784 781 767 763 769 772 776 779 785 786 787 788 790 791 791 794 797 799 800 802 803 803 803 803 802 801 799 798 797 795
749 754 791 810 821 823 814 799 793 767 765 760 758 754 755 752 754 747 770 775 778 768 761 765 773 777 777 785 788 790 790 790 791 792 793 795 798 800 802 803 803 803 804 803 801 799 799 797 797
761 769 783 795 807 823 828 810 779 770 760 762 763 754 752 755 755 764 765 754 768 769 760 767 776 778 778 783 789 792 791 792 792 794 795 794 797 800 801 803 804 803 804 804 803 801 800 800 799
744 756 769 802 800 813 812 801 770 769 763 756 764 760 760 756 755 755 754 748 755 772 763 769 777 777 779 781 789 794 794 793 794 795 797 797 799 799 799 801 803 804 804 804 803 801 802 802 800